Location: Peterborough
(44.3048°N, 78.3199°W)
Time: 04:25:46
(UTC-04:00)

ISS - Pass Details

Date: 19 May 2025
Orbit: 415 x 418 km, 51.6° (Epoch: 20 June)

Event Time Altitude Azimuth Distance (km) Brightness Sun altitude
Rises 22:22:06 0° 301° (WNW) 2,362 1.5 -15.1°
Reaches altitude 10° 22:24:21 10° 312° (NW) 1,496 0.4 -15.4°
Maximum altitude 22:27:23 31° 16° (NNE) 756 -2.2 -15.7°
Enters shadow 22:29:42 15° 75° (ENE) 1,238 -1.6 -16.0°
